CDT,Max TemperatureF,Mean TemperatureF,Min TemperatureF,Max Dew PointF,MeanDew PointF,Min DewpointF,Max Humidity, Mean Humidity, Min Humidity, Max Sea Level PressureIn, Mean Sea Level PressureIn, Min Sea Level PressureIn, Max VisibilityMiles, Mean VisibilityMiles, Min VisibilityMiles, Max Wind SpeedMPH, Mean Wind SpeedMPH, Max Gust SpeedMPH,PrecipitationIn, CloudCover, Events, WindDirDegrees
2013-10-1,80,68,55,59,56,48,96,69,43,29.99,29.88,29.84,10,10,1,17,8,23,0.00,0,,224
2013-10-2,77,61,45,54,43,32,97,59,19,30.13,30.05,29.98,10,9,0,9,2,,0.03,0,,115
2013-10-3,76,66,55,68,59,39,96,77,43,29.97,29.90,29.83,10,8,1,15,5,21,0.00,5,,163
2013-10-4,68,65,62,67,65,62,98,95,91,30.01,29.94,29.87,10,6,0,15,4,23,0.82,7,,96
2013-10-5,75,66,56,71,64,50,98,93,74,29.94,29.85,29.75,10,4,0,12,6,23,0.22,8,,140
2013-10-6,59,51,43,46,41,35,95,70,43,29.78,29.74,29.68,10,10,7,12,6,17,0.01,5,,249
2013-10-7,67,55,43,47,43,39,96,74,36,30.09,29.91,29.73,10,10,7,16,7,21,0.00,3,,285
2013-10-8,76,58,39,48,42,34,98,61,22,30.14,30.11,30.08,10,10,2,17,3,23,0.00,0,,193
2013-10-9,73,60,45,49,43,34,92,64,25,30.22,30.17,30.12,10,10,10,14,3,16,0.00,0,,180
2013-10-10,74,57,40,53,45,40,97,72,31,30.17,30.11,30.04,10,8,1,10,2,10,0.00,0,,148
2013-10-11,76,61,46,57,51,45,97,72,42,30.05,29.98,29.90,10,8,2,22,5,29,0.00,3,,145
2013-10-12,70,56,42,58,47,37,91,63,33,30.17,29.98,29.89,10,10,10,17,9,25,0.00,2,,220
2013-10-13,62,50,37,42,35,28,96,66,28,30.42,30.34,30.17,10,10,7,10,4,17,0.00,0,,319
2013-10-14,63,48,32,44,39,32,98,73,41,30.42,30.31,30.11,10,10,7,17,4,22,0.00,0,,119
2013-10-15,61,56,50,58,48,41,95,79,62,30.10,29.87,29.74,10,8,2,17,10,24,0.23,7,,188
2013-10-16,54,50,47,50,47,43,95,87,74,29.94,29.85,29.78,10,8,2,14,9,20,0.04,8,,273
2013-10-17,56,48,39,46,42,35,97,83,48,29.92,29.86,29.81,10,9,1,10,2,,0.02,5,,279
2013-10-18,48,44,39,42,38,34,93,76,62,29.94,29.88,29.80,10,10,10,18,7,22,0.00,6,,268
2013-10-19,54,42,32,40,35,28,96,79,38,29.90,29.80,29.72,10,10,5,14,3,36,0.00,4,,243
2013-10-20,50,40,31,47,39,31,99,86,63,29.84,29.77,29.69,10,9,2,15,5,20,0.05,4,,212
2013-10-21,48,39,30,42,28,20,83,65,47,29.95,29.89,29.75,10,10,7,18,11,24,0.00,6,,284
2013-10-22,46,36,26,30,26,21,83,67,46,29.97,29.94,29.90,10,10,10,7,3,,0.00,1,,297
2013-10-23,44,35,27,30,27,23,94,73,45,30.02,29.98,29.95,10,10,5,13,5,17,0.00,6,,292
2013-10-24,45,37,29,29,24,20,81,62,38,30.29,30.16,30.02,10,10,7,14,8,20,0.00,6,,293
2013-10-25,52,40,27,28,24,22,84,54,32,30.35,30.20,29.90,10,10,10,20,7,32,0.00,3,,241
2013-10-26,52,43,35,34,27,22,77,50,32,30.07,29.92,29.78,10,10,10,23,13,31,0.00,4,,290
2013-10-27,55,41,27,30,27,22,93,61,28,30.05,29.98,29.89,10,10,10,16,3,23,0.00,0,,230
2013-10-28,44,38,33,32,30,26,84,67,55,30.41,30.29,30.03,10,10,10,15,8,21,0.00,6,,54
2013-10-29,52,44,38,41,36,27,81,69,61,30.40,30.26,30.12,10,10,7,14,7,18,0.00,4,,102
2013-10-30,57,50,45,56,49,40,97,93,79,30.12,29.97,29.73,10,2,0,17,4,21,0.00,8,,130
2013-10-31,62,53,44,62,54,40,98,94,84,29.72,29.44,29.29,10,8,2,20,8,25,0.45,8,,245